www.pogodaiklimat.ru

Погода и климат >> Архив погоды >> Франция >> Лангр


ПОГОДА в Лангре

  • Прогноз погоды в Лангре
  • Монитор погоды в Лангре

АРХИВ ПОГОДЫ в Лангре

Время (UTC), дата Ветер
(напр.,м/с)
 
Видим.   Явления Облачность Т
(С)
Тd
(С)
f
(%)
Тe
(С)
Тes
(С)
Комфортность P
(гПа)
Po
(гПа)
Тmin
(С)
Tmax
(С)
R
(мм)
R24
(мм)
S
(см)
04 12.06 ЮЗ 2 14 км дождь 10/9 240 м
[]
+10.0 +9.2 95 +8 +8 1010.5 955.7 1
05 12.06 З 1 20 км слаб. дождь 10/10 2000 м
[]
+9.5 +8.6 94 +9 +9 1011.2 956.3 0.8
06 12.06 ЮЗ 1
{4}
20 км слаб. дождь 10/0 2000 м
[]
+9.8 +8.9 94 +9 +9 1011.6 956.7 +9.5 +12.2 9 0
07 12.06 Ю 1 20 км 9/6 150 м
[]
+11.3 +10.2 93 +11 +13 1011.5 956.9 0.0
08 12.06 Ю 2 20 км 10/10 270 м
[]
+12.4 +9.9 85 +12 +12 1011.7 957.3
09 12.06 Ю 2
{6}
20 км 10/10 300 м
[]
+12.3 +9.1 81 +12 +12 1011.7 957.3 0.0 0
10 12.06 Ю 2 20 км 9/9 660 м
[]
+15.2 +10.2 72 +15 +17 1011.4 957.5
11 12.06 Ю 2 20 км 10/10 720 м
[]
+13.9 +8.1 68 +13 +13 1011.7 957.5
12 12.06 Ю 3
{10}
20 км н/о +15.8 +8.0 60 +16 +16 1011.2 957.4 0
13 12.06 Ю 2 20 км н/о +17.6 +9.2 58 +18 +18 1010.6 957.2
14 12.06 Ю 3 20 км н/о +19.4 +9.6 53 +21 +21 комфорт 1010.0 956.9
15 12.06 Ю 2
{10}
19 км 10/10 1500 м
[]
+18.0 +8.8 55 +19 +19 1010.7 957.3 0
16 12.06 Ю 2 20 км н/о +17.4 +7.7 53 +18 +18 1010.8 957.3
17 12.06 Ю 2 20 км н/о +16.2 +7.9 58 +16 +16 1011.0 957.3
18 12.06 Ю 2
{9}
20 км н/о +17.3 +7.9 54 +18 +18 1011.0 957.5 +9.8 +19.5 0
19 12.06 ЮЗ 2 20 км н/о +15.3 +7.8 61 +16 +16 1011.7 957.8
20 12.06 ЮЗ 2 20 км н/о +12.6 +6.4 66 +12 +12 1012.8 958.3
21 12.06 ЮЗ 1
{6}
20 км н/о +12.1 +5.7 65 +12 +12 1013.6 959.0 0
22 12.06 ЮЗ 1 20 км н/о +11.1 +5.8 70 +11 +11 1014.3 959.5
23 12.06 ЮЗ 1 20 км н/о +10.2 +5.8 74 +10 +10 1014.5 959.5
00 13.06 ЮЗ 2
{4}
20 км 8/0
[]
+9.9 +6.1 77 +9 +9 1014.8 959.7 0
01 13.06 ЮЗ 1 20 км н/о +9.1 +6.2 82 +8 +8 1015.1 959.8
02 13.06 ЮЗ 2 20 км н/о +9.0 +6.4 84 +8 +8 1015.3 960.0
03 13.06 ЮЗ 1
{4}
20 км н/о +8.7 +6.1 84 +8 +8 1015.2 959.9 0
04 13.06 ЮЗ 1 20 км н/о +8.7 +6.1 84 +8 +8 1015.6 960.2
05 13.06 ЮЗ 1 20 км н/о +10.8 +6.7 76 +11 +11 1015.2 960.3
06 13.06 ЮЗ 2
{6}
17 км н/о +12.3 +7.2 71 +12 +12 1015.3 960.6 +8.4 +17.4 0
07 13.06 ЮЗ 2 20 км н/о +13.9 +8.3 69 +14 +14 1015.0 960.7
08 13.06 Ю 2 20 км н/о +15.7 +8.4 62 +16 +16 1014.6 960.6
09 13.06 Ю 3
{9}
20 км н/о +17.0 +8.2 56 +17 +17 1014.3 960.6 0
10 13.06 Ю 2 19 км н/о +18.6 +9.9 57 +20 +20 1014.1 960.7
11 13.06 Ю 2 20 км н/о +19.2 +8.8 51 +21 +21 комфорт 1013.9 960.6
12 13.06 Ю 3
{9}
20 км н/о +19.6 +8.3 48 +21 +21 комфорт 1013.4 960.2 0
13 13.06 Ю 2 20 км н/о +21.5 +8.0 42 +23 +23 комфорт 1012.9 960.0
14 13.06 Ю 2 20 км н/о +22.0 +8.1 41 +23 +23 комфорт 1012.8 960.0
15 13.06 Ю 2
{9}
17 км н/о +22.4 +6.6 36 +23 +23 комфорт 1012.1 959.4 0
16 13.06 Ю 2 20 км н/о +22.0 +6.6 37 +23 +23 комфорт 1012.0 959.2
17 13.06 Ю 2 20 км 10/10
[]
+21.4 +7.6 41 +22 +22 комфорт 1011.5 958.7
18 13.06 ЮВ 2
{6}
20 км н/о +20.2 +6.5 41 +22 +22 комфорт 1011.7 958.6 +12.1 +23.1 0
19 13.06 ЮВ 2 20 км н/о +18.3 +5.5 43 +19 +19 1012.0 958.6
20 13.06 ЮВ 2 20 км 10/10
[]
+17.6 +5.5 45 +18 +18 1012.5 958.9
21 13.06 ЮВ 2
{7}
20 км н/о +17.4 +5.3 45 +18 +18 1012.7 959.1 0
22 13.06 ЮВ 3 20 км 9/9
[]
+17.7 +7.1 50 +18 +18 1012.7 959.2
23 13.06 ЮВ 2 20 км 9/9
[]
+16.4 +7.9 57 +17 +17 1013.1 959.3
00 14.06 Ю 2
{6}
20 км н/о +12.8 +8.3 74 +12 +12 1013.6 959.1 0
01 14.06 Ю 2 20 км 9/9
[]
+12.0 +7.9 76 +11 +11 1013.3 958.7
02 14.06 ЮВ 2 20 км н/о +14.8 +7.8 63 +15 +15 1012.9 958.8
03 14.06 Ю 2
{6}
20 км 10/0
[]
+11.8 +7.5 75 +11 +11 1013.2 958.6 0
04 14.06 Ю 1 20 км 10/10
[]
+14.8 +7.1 60 +15 +15 1013.3 959.2
05 14.06 Ю 2 20 км 9/9
[]
+15.9 +7.1 56 +16 +16 1014.0 960.1
06 14.06 З 1
{8}
20 км 10/0
[]
+14.7 +8.0 64 +15 +15 1015.0 960.8 +11.0 +20.1 0
07 14.06 СЗ 1 20 км 10/10
[]
+14.5 +8.2 66 +15 +15 1015.7 961.4 0.0
08 14.06 С 1 20 км 9/9
[]
+15.9 +9.1 64 +17 +18 1016.2 962.2
09 14.06 В 1
{5}
20 км н/о +17.4 +10.5 64 +18 +18 1015.8 962.1 0.0 0
10 14.06 ЮВ 3 20 км н/о +18.7 +11.0 61 +19 +19 1015.2 961.8
11 14.06 Ю 2 20 км н/о +18.3 +11.4 64 +19 +19 1014.2 960.8
12 14.06 ЮВ 4
{12}
20 км 8/0
[]
+17.0 +11.9 72 +17 +19 1014.3 960.6 0
13 14.06 ЮВ 3 20 км слаб. дождь 10/3 1050 м
[]
+15.6 +12.2 80 +15 +21 1014.4 960.5 0.0
14 14.06 ЮВ 2 20 км слаб. дождь 10/10 1500 м
[]
+15.6 +13.1 85 +16 +16 1014.1 960.2 0.0
15 14.06 В 1
{6}
20 км 10/10 100 м
[]
+14.9 +13.4 91 +15 +21 1013.5 959.5 0.4 0
16 14.06 В 2 18 км 10/10 90 м
[]
+15.2 +13.9 92 +15 +15 1012.2 958.4 0.0
17 14.06 В 1 20 км 10/8 120 м
[]
+15.7 +14.4 92 +16 +17 1011.7 958.0
18 14.06 ЮЗ 1
{4}
20 км 8/0
[]
+16.0 +14.2 89 +17 +18 1012.8 959.1 +14.3 +19.7 0.0 0
19 14.06 штиль 0 20 км 9/1 1140 м
[]
+15.3 +13.8 91 +15 +15 1011.9 958.1 1
20 14.06 С 1 20 км 8/8
[]
+14.8 +13.7 93 +16 +16 1011.7 957.8
21 14.06 С 1
{4}
20 км 10/0
[]
+14.7 +13.4 92 +16 +16 1011.5 957.6 1 0
22 14.06 З 1 5000 м 10/3 30 м
[]
+14.5 +13.2 92 +15 +15 1011.8 957.8 0.0
23 14.06 С 1 19 км 10/1 60 м
[]
+14.5 +13.4 93 +15 +15 1010.8 956.9 0.0
00 15.06 З 1
{8}
4800 м дождь 10/10 50 м
[]
+14.1 +13.1 94 +14 +14 1013.2 959.1 6 0
01 15.06 Ю 1 4400 м слаб. дождь 10/10 1500 м
[]
+13.8 +13.0 95 +15 +15 1012.7 958.6 2
02 15.06 ЮЗ 2 600 м туман ?/? +13.7 +12.9 95 +13 +13 1013.7 959.5 0.2
03 15.06 ЮЗ 2
{7}
20 км 10/10 100 м
[]
+13.7 +12.9 95 +13 +13 1014.0 959.8 2 0
04 15.06 ЮЗ 2 13 км 10/10 120 м
[]
+13.5 +12.7 95 +13 +13 1014.8 960.5 0.0
05 15.06 ЮЗ 2 17 км 10/10 90 м
[]
+13.5 +12.7 95 +13 +13 1015.0 960.7
06 15.06 ЮЗ 1
{5}
20 км 10/10 100 м
[]
+14.1 +13.3 95 +14 +14 1015.3 961.1 +13.5 +16.0 9 0
07 15.06 ЮЗ 1 20 км 9/9 270 м
[]
+16.3 +14.0 86 +17 +18 1015.6 961.8
08 15.06 З 2 20 км 10/10 300 м
[]
+15.7 +13.4 86 +16 +16 1016.8 962.8
09 15.06 З 2
{5}
20 км 10/10 300 м
[]
+16.0 +13.1 83 +16 +16 1017.2 963.2 0
10 15.06 З 2 20 км 10/10 450 м
[]
+17.2 +13.1 77 +18 +18 1017.1 963.3
11 15.06 Ю 1 20 км 10/10 420 м
[]
+19.7 +14.9 74 +23 +23 комфорт 1016.7 963.4
12 15.06 З 1
{5}
20 км 10/10 300 м
[]
+18.2 +13.1 72 +20 +20 1016.8 963.2 0
13 15.06 Ю 1 20 км 8/4 1080 м
[]
+20.8 +13.0 61 +25 +33 комфорт 1016.3 963.2
14 15.06 Ю 1 20 км 10/3 800 м
[]
+19.1 +13.7 71 +21 +27 комфорт 1016.3 962.9
15 15.06 З 2
{8}
20 км 10/10 600 м
[]
+17.7 +12.6 72 +18 +20 1016.8 963.1 0.0 0
16 15.06 СЗ 2 19 км дождь 10/10 400 м
[]
+15.5 +13.5 88 +16 +16 1017.3 963.2 0.4
17 15.06 З 2 10 км дождь 10/10 1500 м
[]
+14.6 +13.3 92 +14 +14 1018.2 963.9 3
18 15.06 З 2
{5}
16 км слаб. дождь 10/10 100 м
[]
+14.5 +13.4 93 +14 +15 1018.3 964.0 +14.1 +21.1 7 0
19 15.06 З 1 15 км 10/10 2000 м
[]
+14.4 +13.4 94 +15 +15 1018.5 964.2 0.2
20 15.06 ЮЗ 1 15 км 10/10 1500 м
[]
+14.1 +13.1 94 +14 +14 1019.2 964.8 0.0
21 15.06 ЮЗ 1
{3}
14 км 10/10 1500 м
[]
+14.0 +13.0 94 +15 +15 1019.9 965.4 0.2 0
22 15.06 ЮЗ 1 15 км 10/10 1500 м
[]
+13.8 +12.9 94 +14 +14 1020.1 965.6
23 15.06 ЮЗ 1 20 км 10/10 2000 м
[]
+13.4 +12.3 93 +13 +13 1020.7 966.0
00 16.06 ЮЗ 1
{4}
20 км 10/0 2000 м
[]
+12.6 +11.2 91 +13 +13 1021.2 966.3 0
01 16.06 З 2 20 км 10/10 2000 м
[]
+12.3 +10.7 90 +12 +12 1021.1 966.2
02 16.06 З 2 20 км 10/10 2000 м
[]
+11.9 +10.5 91 +11 +11 1021.3 966.3
03 16.06 З 2
{6}
20 км н/о +11.3 +9.7 90 +10 +10 1021.5 966.4 0
04 16.06 З 2 20 км н/о +11.0 +9.6 91 +10 +10 1022.1 966.9
05 16.06 З 1 20 км н/о +12.1 +10.0 87 +12 +12 1022.2 967.2
06 16.06 З 2
{5}
20 км н/о +13.4 +10.6 83 +13 +13 1022.5 967.7 +10.7 +14.5 0.2 0
07 16.06 З 2 20 км н/о +14.6 +10.8 78 +15 +15 1022.5 967.9
08 16.06 СЗ 1 20 км н/о +15.9 +11.1 73 +17 +17 1022.3 968.0
09 16.06 З 1
{4}
20 км н/о +17.2 +10.8 66 +18 +18 1022.1 968.0 0
10 16.06 З 1 20 км 8/8 900 м
[]
+18.0 +11.1 64 +19 +23 1022.1 968.2
11 16.06 ЮЗ 1 20 км 9/9 1080 м
[]
+17.7 +9.3 58 +19 +21 1022.1 968.1
12 16.06 ЮЗ 1
{5}
20 км н/о +20.0 +9.3 50 +22 +22 комфорт 1021.4 967.8 0
13 16.06 ЮЗ 1 20 км н/о +21.1 +10.3 50 +23 +23 комфорт 1021.0 967.7
14 16.06 СВ 1 20 км 9/9 1350 м
[]
+20.1 +9.0 49 +22 +24 комфорт 1021.1 967.6
15 16.06 штиль 0
{3}
20 км н/о +20.0 +9.5 51 +21 +21 комфорт 1020.8 967.3 0
16 16.06 СВ 1 20 км н/о +20.9 +9.2 47 +24 +24 комфорт 1020.2 966.9
17 16.06 С 1 20 км н/о +20.4 +9.3 49 +23 +23 комфорт 1020.2 966.8
18 16.06 С 1
{3}
20 км н/о +20.7 +8.7 46 +24 +24 комфорт 1020.1 966.7 +13.4 +21.4 0
19 16.06 С 1 20 км н/о +19.1 +10.1 56 +22 +22 комфорт 1020.1 966.5
20 16.06 С 1 20 км н/о +16.7 +9.9 64 +18 +18 1020.7 966.6
21 16.06 С 1
{3}
20 км н/о +15.5 +9.8 69 +16 +16 1021.0 966.7 0
22 16.06 С 1 20 км н/о +14.9 +9.7 71 +15 +15 1021.1 966.6
23 16.06 С 1 20 км н/о +14.8 +9.6 71 +15 +15 1021.0 966.5
00 17.06 С 1
{4}
20 км н/о +14.4 +9.6 73 +15 +15 1020.9 966.4 0
01 17.06 СВ 1 20 км н/о +13.8 +9.8 77 +14 +14 1020.7 966.1
02 17.06 СВ 1 20 км н/о +13.2 +9.6 79 +13 +13 1020.4 965.7
03 17.06 СВ 1
{5}
20 км н/о +12.9 +9.5 80 +13 +13 1020.4 965.6 0
04 17.06 СВ 1 20 км н/о +12.6 +9.4 81 +13 +13 1020.3 965.5
05 17.06 СВ 1 20 км н/о +14.5 +9.7 73 +15 +15 1019.6 965.2
06 17.06 СВ 1
{4}
20 км н/о +16.3 +10.4 68 +17 +17 1019.3 965.2 +12.5 +20.7 0
07 17.06 СВ 1 20 км н/о +17.8 +11.6 67 +19 +19 1019.0 965.2
08 17.06 СВ 1 20 км н/о +19.7 +12.0 61 +22 +22 комфорт 1018.4 965.0
09 17.06 В 1
{4}
20 км н/о +21.2 +13.1 60 +24 +24 комфорт 1018.0 964.9 0
10 17.06 В 1 20 км н/о +21.4 +12.0 55 +24 +24 комфорт 1017.8 964.7
11 17.06 СВ 1 20 км н/о +21.9 +11.3 51 +24 +24 комфорт 1017.4 964.4
12 17.06 С 1
{5}
19 км н/о +23.4 +11.4 47 +26 +26 жарко 1016.7 964.0 0
13 17.06 0-2 н/о 963.8
14 17.06 0-3 н/о 963.4
15 17.06 С 0-2
{5}
15 км н/о 963.0 0
16 17.06 СВ 2-2
{4}
н/о 962.6
17 17.06 0-2 н/о 962.3
18 17.06 С 0-2
{3}
20 км н/о 962.2 0
19 17.06 0-1 н/о 962.3
20 17.06 0-1 н/о 962.6
21 17.06 С 0-1
{2}
10 км н/о 962.6 0
22 17.06 0-1 н/о 962.4
23 17.06 0-1 н/о 962.3
00 18.06 СВ 0-1
{3}
20 км н/о 962.1 0
01 18.06 0-1 н/о 961.6
02 18.06 0-1 н/о 961.4
03 18.06 СВ 0-1
{2}
20 км н/о 961.4 0
04 18.06 0-1 н/о 961.2
05 18.06 0-1 н/о 961.2
06 18.06 В 0
{4}
20 км н/о 961.3 0
07 18.06 0-2 н/о 961.5
08 18.06 0-1 н/о 961.1
09 18.06 ЮВ 1
{5}
20 км 8/8 <50 м
[]
+23.9 +14.9 57 +27 +35 жарко 1013.2 960.9 0
10 18.06 Ю 2 20 км 10/10
[]
+25.4 +16.3 57 +29 +29 душно 1012.9 960.9
11 18.06 Ю 2 20 км н/о +24.1 +15.8 60 +27 +27 жарко 1013.1 960.8
12 18.06 Ю 2
{6}
20 км н/о +25.5 +16.4 57 +29 +29 душно 1012.6 960.6 0
13 18.06 ЮВ 2 20 км н/о +26.6 +17.9 59 +31 +31 душно 1012.1 960.3
14 18.06 ЮВ 2 20 км н/о +26.7 +16.9 55 +30 +30 душно 1011.6 959.9
15 18.06 Ю 2
{7}
20 км н/о +26.9 +16.8 54 +31 +31 душно 1011.2 959.5 0
16 18.06 Ю 2 20 км 10/10
[]
+26.1 +14.9 50 +29 +29 жарко 1010.7 958.9
17 18.06 Ю 2 20 км 8/8
[]
+25.3 +15.6 55 +28 +29 жарко 1010.7 958.7
18 18.06 Ю 1
{6}
20 км 8/0
[]
+23.1 +16.9 68 +28 +28 душно 1010.8 958.5 0
19 18.06 ЮВ 1 20 км 9/9
[]
+21.6 +15.7 69 +25 +25 комфорт 1011.0 958.4
20 18.06 ЮВ 1 20 км 9/9
[]
+22.2 +14.6 62 +26 +26 душно 1010.8 958.3
21 18.06 ЮВ 1
{4}
20 км 10/0
[]
+21.6 +14.3 63 +25 +25 комфорт 1011.1 958.5 0
22 18.06 ЮВ 2 20 км н/о +18.9 +13.5 71 +21 +21 комфорт 1011.2 958.1
23 18.06 Ю 2 17 км н/о +15.7 +13.5 87 +16 +16 1011.5 957.8
00 19.06 Ю 2
{6}
20 км н/о +18.8 +12.8 68 +20 +20 1010.1 957.0 0
01 19.06 Ю 2 20 км н/о +18.7 +11.0 61 +20 +20 1009.8 956.7
02 19.06 Ю 3 20 км н/о +18.3 +10.1 59 +19 +19 1010.0 956.8
03 19.06 Ю 3
{12}
20 км н/о +17.7 +10.1 61 +18 +18 1009.8 956.5 0

 

Местоположение метеостанции Лангр (Франция): широта 47.85 долгота 5.33 высота над уровнем моря 467 м.

В архиве по умолчанию представлена погода в Лангре за последнюю неделю. Архивные данные за месяц целиком и за предыдущие месяцы, начиная с января 2011 года, Вы можете получить, выбрав интересующий диапазон дат из раскрывающегося списка и нажав кнопку "Ввод!".


*Определитесь, кто Вы:
робот инопланетянин человек

Внимание! Время в таблицах - всемирное. Для получения местного времени необходимо прибавить поправку, которая равна 1 ч.

Смотрите также архив погоды в соседних городах и на ближайших метеорологических станциях:

Погода в Дижоне (Франция) (67 км)
Погода в Люксей-ле-Бене (Франция) (79 км)
Погода в Безансоне (Франция) (83 км)
Погода на Базе ВВС Lanveoc Poulmic (Франция) (88 км)
Погода в Доле (Франция) (91 км)
Погода в Сен-Дизье (Франция) (92 км)
Погода на Базе ВВС Nancy Ochey (Франция) (94 км)
Погода в Труа (Франция) (111 км)
Погода в Нанси (Франция) (113 км)
Погода в Доране (Франция) (117 км)

Пояснения к столбцам:

Ветер - указаны скорость ветра в м/с - средняя за 10 мин, порывы в срок и между сроками (в фигурных скобках) и направление, откуда дует ветер: С - северный, СВ - северо-восточный, В - восточный, ЮВ - юго-восточный, Ю - южный, ЮЗ - юго-западный, З - западный, СЗ - северо-западный.
Видимость - горизонтальная дальность видимости в метрах или километрах. При видимости от 1 до 10 км при отсутствии осадков обычно наблюдается дымка, при ухудшении видимости до 1 км и менее - туман. В сухую погоду видимость может ухудшаться дымом, пылью или мглою.
Явления - указаны атмосферные явления, наблюдавшиеся в срок или в последний час перед сроком; фигурными скобками обозначены явления, наблюдавшиеся между сроками (за 1-3 часа до срока); квадратными скобками обозначены град или гололедные отложения с указанием их диаметра в мм.
Облачность - указаны через наклонную черту общая и нижняя облачность в баллах и высота нижней границы облаков в метрах; квадратными скобками обозначены формы облаков: Ci - перистые, Cs - перисто-слоистые, Cc - перисто-кучевые, Ac - высококучевые, As - высокослоистые, Sc - слоисто-кучевые, Ns - слоисто-дождевые, Cu - кучевые, Cb - кучево-дождевые. Подробнее классификацию облаков см. в Атласе облаков (PDF).
T - Температура воздуха - температура, измеренная на высоте 2 м над землей.
Td - Температура точки росы - температура, при понижении до которой содержащийся в воздухе водяной пар достигнет насыщения.
f - Относительная влажность воздуха - влажноcть воздуха, измеренная на высоте 2 м над землей.
Te - Эффективная температура - температура, которую ощущает одетый по сезону человек в тени. Характеристика душности погоды. При расчете учитывается влияние влажности воздуха и скорости ветра на теплоощущения человека.
Tes - Эффективная температура на солнце - температура, которую ощущает человек, с поправкой на солнечный нагрев. Характеристика знойности погоды. Зависит от высоты солнца над горизонтом, облачности и скорости ветра. Ночью, в пасмурную погоду, а также при ветре 12 м/с и более поправка равна нулю.
P - Атмосферное давление - приведенное к уровню моря атмосферное давление.
Po - Атмосферное давление - измеренное на уровне метеостанции атмосферное давление.
Tmin - Минимальная температура - минимум температуры воздуха на высоте 2 м над землей.
Tmax - Максимальная температура - максимум температуры воздуха на высоте 2 м над землей.
R - Количество осадков - Количество выпавших осадков за период времени, мм. При наведении курсора мыши на число - период времени, за который выпало указанное количество осадков.
R24 - Количество осадков - Количество выпавших осадков за 24 часа, мм.
S - Снежный покров - Высота снежного покрова, см. При наведении курсора мыши на число - состояние снежного покрова и степень покрытия местности в баллах.